When you browse on this site, cookies collect data to enhance your experience and personalize the content and advertising you see.
Visit our Privacy Policy to learn more. By continuing to use the site, you agree to this use of cookies and data.
  • In Czech Republic
  • List of Countries
  • For 7 days
  • Water Temperature
  • Weather Map
  • Weather Widgets
  • user-avatar
    Login

    Hourly Weather Achaea

    Today, 14 December, Saturday

    Time Temperature Precipitation Wind Pressure Humidity
    00:00 +7°C° 0.3 mm 3 mps 672 mmHg 91%
    01:00 +6°C° 0 mm 4 mps 672 mmHg 92%
    02:00 +6°C° 3.8 mm 5 mps 670 mmHg 93%
    03:00 +6°C° 3.8 mm 5 mps 669 mmHg 94%
    04:00 +6°C° 3.8 mm 5 mps 668 mmHg 95%
    05:00 +6°C° 5.2 mm 4 mps 668 mmHg 96%
    06:00 +7°C° 5.2 mm 3 mps 668 mmHg 96%
    07:00 +7°C° 0 mm 2 mps 668 mmHg 97%
    08:00 +7°C° 2.9 mm 3 mps 668 mmHg 95%
    09:00 +7°C° 2.9 mm 3 mps 668 mmHg 93%
    10:00 +7°C° 2.9 mm 3 mps 668 mmHg 91%
    11:00 +7°C° 1.1 mm 3 mps 669 mmHg 91%
    12:00 +7°C° 1.1 mm 3 mps 669 mmHg 90%
    13:00 +7°C° 1.1 mm 2 mps 669 mmHg 89%
    14:00 +7°C° 0.7 mm 2 mps 670 mmHg 89%
    15:00 +6°C° 0.7 mm 2 mps 670 mmHg 89%
    16:00 +6°C° 0.7 mm 2 mps 671 mmHg 89%
    17:00 +6°C° 0 mm 2 mps 672 mmHg 89%
    18:00 +5°C° 0 mm 2 mps 673 mmHg 89%
    19:00 +5°C° 0 mm 2 mps 674 mmHg 89%
    20:00 +5°C° 0 mm 2 mps 675 mmHg 88%
    21:00 +5°C° 0 mm 2 mps 676 mmHg 86%
    22:00 +6°C° 0 mm 1 mps 677 mmHg 85%
    23:00 +6°C° 0 mm 1 mps 678 mmHg 84%

    Tomorrow, 15 December, Sunday

    Time Temperature Precipitation Wind Pressure Humidity
    00:00 +6°C° 0 mm 1 mps 679 mmHg 84%
    01:00 +6°C° 0 mm 1 mps 679 mmHg 83%
    02:00 +7°C° 0 mm 1 mps 680 mmHg 83%
    03:00 +7°C° 0 mm 1 mps 681 mmHg 83%
    04:00 +6°C° 0 mm 2 mps 681 mmHg 83%
    05:00 +6°C° 0 mm 2 mps 682 mmHg 83%
    06:00 +6°C° 0 mm 2 mps 683 mmHg 83%
    07:00 +6°C° 0 mm 2 mps 684 mmHg 83%
    08:00 +8°C° 0 mm 2 mps 685 mmHg 80%
    09:00 +10°C° 0 mm 2 mps 686 mmHg 76%
    10:00 +13°C° 0 mm 2 mps 687 mmHg 73%
    11:00 +13°C° 0 mm 2 mps 687 mmHg 71%
    12:00 +14°C° 0 mm 2 mps 688 mmHg 70%
    13:00 +14°C° 0 mm 2 mps 688 mmHg 68%
    14:00 +13°C° 0 mm 1 mps 688 mmHg 74%
    15:00 +12°C° 0 mm 1 mps 688 mmHg 80%
    16:00 +11°C° 0 mm 1 mps 688 mmHg 86%
    17:00 +10°C° 0 mm 1 mps 688 mmHg 87%
    18:00 +10°C° 0 mm 1 mps 689 mmHg 88%
    19:00 +9°C° 0 mm 1 mps 689 mmHg 89%
    20:00 +9°C° 0 mm 1 mps 689 mmHg 89%
    21:00 +9°C° 0 mm 1 mps 690 mmHg 89%
    22:00 +9°C° 0 mm 1 mps 690 mmHg 89%
    23:00 +9°C° 0 mm 1 mps 690 mmHg 89%

    Day after tomorrow, 16 December, Monday

    Time Temperature Precipitation Wind Pressure Humidity
    00:00 +8°C° 0 mm 1 mps 690 mmHg 89%
    01:00 +8°C° 0 mm 1 mps 690 mmHg 89%
    02:00 +8°C° 0 mm 1 mps 690 mmHg 90%
    03:00 +8°C° 0 mm 1 mps 690 mmHg 90%
    04:00 +8°C° 0 mm 1 mps 690 mmHg 91%
    05:00 +8°C° 0 mm 1 mps 690 mmHg 91%
    06:00 +8°C° 0 mm 1 mps 690 mmHg 91%
    07:00 +8°C° 0 mm 1 mps 691 mmHg 91%
    08:00 +9°C° 0 mm 1 mps 691 mmHg 87%
    09:00 +11°C° 0 mm 1 mps 692 mmHg 83%
    10:00 +13°C° 0 mm 1 mps 692 mmHg 78%
    11:00 +13°C° 0 mm 1 mps 692 mmHg 77%
    12:00 +13°C° 0 mm 1 mps 692 mmHg 76%
    13:00 +13°C° 0 mm 2 mps 691 mmHg 75%
    14:00 +13°C° 0 mm 1 mps 691 mmHg 79%
    15:00 +12°C° 0 mm 1 mps 691 mmHg 83%
    16:00 +11°C° 0 mm 1 mps 691 mmHg 87%
    17:00 +10°C° 0 mm 1 mps 691 mmHg 88%
    18:00 +10°C° 0 mm 1 mps 691 mmHg 90%
    19:00 +9°C° 0 mm 1 mps 691 mmHg 91%
    20:00 +9°C° 0 mm 1 mps 691 mmHg 90%
    21:00 +8°C° 0 mm 1 mps 691 mmHg 90%
    22:00 +8°C° 0 mm 1 mps 691 mmHg 89%
    23:00 +8°C° 0 mm 1 mps 690 mmHg 89%

    17 December, Tuesday

    Time Temperature Precipitation Wind Pressure Humidity
    00:00 +8°C° 0 mm 1 mps 690 mmHg 88%
    01:00 +8°C° 0 mm 1 mps 690 mmHg 88%
    02:00 +8°C° 0 mm 1 mps 690 mmHg 88%
    03:00 +7°C° 0 mm 1 mps 690 mmHg 87%
    04:00 +7°C° 0 mm 1 mps 690 mmHg 87%
    05:00 +7°C° 0 mm 1 mps 690 mmHg 87%
    06:00 +7°C° 0 mm 1 mps 690 mmHg 86%
    07:00 +7°C° 0 mm 1 mps 690 mmHg 86%
    08:00 +9°C° 0 mm 1 mps 690 mmHg 81%
    09:00 +11°C° 0 mm 1 mps 691 mmHg 77%
    10:00 +13°C° 0 mm 1 mps 691 mmHg 72%
    11:00 +13°C° 0 mm 1 mps 691 mmHg 72%
    12:00 +13°C° 0 mm 2 mps 691 mmHg 72%
    13:00 +13°C° 0 mm 2 mps 691 mmHg 72%
    14:00 +12°C° 0 mm 2 mps 690 mmHg 77%
    15:00 +12°C° 0 mm 2 mps 690 mmHg 82%
    16:00 +11°C° 0 mm 1 mps 690 mmHg 86%
    17:00 +10°C° 0 mm 1 mps 690 mmHg 88%
    18:00 +9°C° 0 mm 1 mps 690 mmHg 89%
    19:00 +8°C° 0 mm 1 mps 690 mmHg 90%
    20:00 +8°C° 0 mm 1 mps 690 mmHg 89%
    21:00 +8°C° 0 mm 1 mps 690 mmHg 87%
    22:00 +8°C° 0 mm 1 mps 691 mmHg 86%
    23:00 +8°C° 0 mm 1 mps 690 mmHg 83%

    18 December, Wednesday

    Time Temperature Precipitation Wind Pressure Humidity
    00:00 +7°C° 0 mm 1 mps 690 mmHg 81%
    01:00 +7°C° 0 mm 1 mps 690 mmHg 78%
    02:00 +7°C° 0 mm 1 mps 690 mmHg 76%
    03:00 +7°C° 0 mm 1 mps 690 mmHg 73%
    04:00 +7°C° 0 mm 1 mps 690 mmHg 71%
    05:00 +7°C° 0 mm 1 mps 690 mmHg 68%
    06:00 +7°C° 0 mm 1 mps 690 mmHg 66%
    07:00 +7°C° 0 mm 1 mps 690 mmHg 63%
    08:00 +9°C° 0 mm 1 mps 691 mmHg 61%
    09:00 +11°C° 0 mm 1 mps 691 mmHg 59%
    10:00 +13°C° 0 mm 1 mps 692 mmHg 57%
    11:00 +14°C° 0 mm 1 mps 691 mmHg 57%
    12:00 +14°C° 0 mm 1 mps 691 mmHg 57%
    13:00 +15°C° 0 mm 1 mps 691 mmHg 56%
    14:00 +13°C° 0 mm 1 mps 691 mmHg 64%
    15:00 +12°C° 0 mm 1 mps 690 mmHg 71%
    16:00 +11°C° 0 mm 1 mps 690 mmHg 79%
    17:00 +10°C° 0 mm 1 mps 690 mmHg 77%
    18:00 +10°C° 0 mm 1 mps 690 mmHg 76%
    19:00 +9°C° 0 mm 1 mps 690 mmHg 74%
    20:00 +9°C° 0 mm 1 mps 690 mmHg 71%
    21:00 +9°C° 0 mm 1 mps 690 mmHg 69%
    22:00 +8°C° 0 mm 1 mps 690 mmHg 66%
    23:00 +8°C° 0 mm 1 mps 690 mmHg 65%

    19 December, Thursday

    Time Temperature Precipitation Wind Pressure Humidity
    00:00 +8°C° 0 mm 1 mps 690 mmHg 64%
    01:00 +8°C° 0 mm 1 mps 690 mmHg 63%
    02:00 +8°C° 0 mm 1 mps 690 mmHg 65%
    03:00 +8°C° 0 mm 1 mps 689 mmHg 66%
    04:00 +8°C° 0 mm 1 mps 689 mmHg 67%
    05:00 +8°C° 0 mm 1 mps 689 mmHg 68%
    06:00 +8°C° 0 mm 1 mps 689 mmHg 70%
    07:00 +8°C° 0 mm 1 mps 689 mmHg 71%
    08:00 +8°C° 0 mm 2 mps 690 mmHg 71%
    09:00 +9°C° 0 mm 2 mps 690 mmHg 71%
    10:00 +12°C° 0 mm 2 mps 690 mmHg 71%
    11:00 +12°C° 0 mm 2 mps 690 mmHg 72%
    12:00 +13°C° 0 mm 2 mps 689 mmHg 73%
    13:00 +13°C° 0 mm 2 mps 689 mmHg 73%
    14:00 +12°C° 0.1 mm 2 mps 689 mmHg 78%
    15:00 +10°C° 0.1 mm 2 mps 688 mmHg 83%
    16:00 +10°C° 0.1 mm 2 mps 688 mmHg 88%
    17:00 +9°C° 0.1 mm 2 mps 688 mmHg 89%
    18:00 +9°C° 0.1 mm 2 mps 688 mmHg 90%
    19:00 +8°C° 0.1 mm 2 mps 688 mmHg 92%
    20:00 +8°C° 0.1 mm 2 mps 688 mmHg 92%
    21:00 +8°C° 0.1 mm 2 mps 688 mmHg 92%
    22:00 +7°C° 0.1 mm 2 mps 688 mmHg 92%
    23:00 +8°C° 0.1 mm 2 mps 687 mmHg 92%
    Show more